[[{"header":{"parameterUnit":"m.s-1","parameterCategory":1,"la1":30.2991,"la2":30.254,"lo1":-89.0895,"lo2":-89.0444,"dy":0.0017,"dx":0.0017,"nx":28,"ny":28,"refTime":"2024-07-30T21:00:00:Z","depth":0,"parameterNumber":2,"parameterNumberName":"U-component_of_WINDS"},"data":[0,0,0,0,0,0,0,0,0,0,0,0,0,0,0,0,0,0,0,0,0,0,0,0,0,0,0,0,0,0,0,0,0,0,0,0,0,0,0,0,0,0,0,0,0,0,0,0,0,0,0,0,0,0,0,0,0,0,4.0553,4.0554,0,4.0656,4.0657,4.0658,4.0565,4.0562,4.0558,4.0554,4.0664,4.067,4.0677,0,0,0,0,0,0,0,0,0,0,0,0,0,4.0278,4.0284,4.0553,4.0554,4.0555,4.0656,4.0657,4.0658,4.0566,4.0561,4.0557,4.0553,4.0662,4.067,4.0677,0,0,0,0,0,0,0,0,0,0,0,0,0,4.0391,4.0285,4.0552,4.0521,4.0519,4.0655,4.0657,4.0659,4.0567,4.0561,4.0556,4.055,4.066,4.0669,4.0678,4.0852,0,0,4.0708,4.0712,0,0,0,0,0,0,0,0,4.0385,4.0401,4.0524,4.0523,4.0522,4.0592,4.06,4.0724,4.0568,4.0549,4.0554,4.0548,4.0645,4.0655,4.0687,4.0857,4.0862,4.0709,4.0715,4.0719,4.0722,0,0,0,0,0,0,0,4.0377,4.0396,4.0593,4.0526,4.0525,4.0503,4.0512,4.0623,4.0628,4.055,4.0544,4.0557,4.0643,4.0678,4.0689,4.0863,4.0709,4.0717,4.0723,4.0727,4.1178,4.1184,0,0,0,0,0,0,4.0372,4.039,4.059,4.0597,4.0438,4.0512,4.0523,4.0575,4.0626,4.0629,4.0562,4.0552,4.0665,4.0678,4.0693,4.0897,4.0719,4.0728,4.0734,4.1172,4.1179,4.1186,0,0,0,0,0,0,4.0366,4.0391,4.0586,4.0492,4.0515,4.0523,4.0582,4.058,4.0615,4.0635,4.0636,4.0597,4.0661,4.0679,4.0812,4.09,4.0732,4.0741,4.1164,4.1174,4.1183,4.1309,0,0,0,0,0,0,4.0359,4.0389,4.0455,4.0494,4.052,4.0703,4.0588,4.0586,4.0632,4.062,4.0668,4.067,4.0658,4.0798,4.0822,4.091,4.0749,4.1157,4.1169,4.118,4.1297,4.1321,4.1342,0,0,0,0,0,4.035,4.0488,4.0459,4.0483,4.0602,4.0709,4.0724,4.0705,4.0639,4.0705,4.0717,4.0669,4.0887,4.0813,4.0838,4.0931,4.1151,4.1165,4.1179,4.1287,4.1317,4.1342,0,0,0,0,0,0,4.0461,4.0493,4.0461,4.0615,4.066,4.0693,4.0776,4.0738,4.0803,4.079,4.0765,4.0777,4.0916,4.0937,4.0854,4.11,4.1008,4.1028,4.1081,4.111,4.1132,4.1124,4.0757,0,0,0,0,0,4.0503,4.0586,4.061,4.0744,4.0768,4.0768,4.0814,4.0795,4.0841,4.086,4.0882,4.0929,4.1007,4.106,4.1134,4.13,4.1308,4.1376,4.1398,4.1417,4.1434,4.1521,4.1551,4.1231,4.1231,4.1231,0,0,4.0593,4.062,4.0674,4.0767,4.0799,4.0886,4.0785,4.0881,4.0945,4.0875,4.1,4.1019,4.1069,4.1219,4.1286,4.124,4.1524,4.1435,4.1449,4.1456,4.1539,4.1569,4.1596,4.1241,4.1239,4.1238,0,0,4.0798,4.0828,4.0942,4.0975,4.1024,4.1023,4.1051,4.1089,4.1098,4.1223,4.1172,4.1248,4.1385,4.1422,4.1459,4.1677,4.1634,4.1702,4.182,4.1905,4.193,4.1953,4.2029,4.2057,4.1719,4.1719,4.172,0,4.0903,4.103,4.1006,4.1105,4.1147,4.1085,4.12,4.1235,4.1306,4.1337,4.1285,4.1453,4.1483,4.1639,4.1692,4.1725,4.1755,4.1696,4.1929,4.1951,4.1971,4.2043,4.2072,4.1727,4.1726,4.1725,4.1725,0,4.1156,4.1245,4.1331,4.1399,4.1451,4.1558,4.155,4.1605,4.1582,4.1587,4.1715,4.1748,4.1826,4.1862,4.1842,4.2016,4.1985,4.1932,4.1838,4.201,4.2077,4.2105,4.1738,4.1735,4.1733,4.1731,0,0,4.1436,4.1487,4.1519,4.1548,4.1597,4.1665,4.1769,4.1844,4.1891,4.1943,4.2029,4.2144,4.2094,4.2136,4.2119,4.2194,4.2362,4.213,4.2131,4.2171,4.2554,4.2593,4.2626,4.2334,4.2339,4.2343,4.2549,0,4.1642,4.182,4.18,4.1971,4.2052,4.1994,4.2084,4.2124,4.2131,4.2201,4.2209,4.229,4.2218,4.2243,4.2315,4.2326,4.2438,4.2311,4.2413,4.2417,4.2401,4.2661,4.2704,4.2896,4.2575,4.258,4.2583,0,4.1907,4.1964,4.2142,4.2176,4.221,4.2291,4.2356,4.2425,4.2468,4.2468,4.2514,4.2483,4.2587,4.2492,4.2635,4.2549,4.2589,4.2601,4.2608,4.2616,4.251,4.2675,4.2957,4.2986,4.2625,4.2621,4.2618,0,4.2091,4.2214,4.2335,4.2362,4.2405,4.2463,4.2485,4.2522,4.2568,4.2626,4.2654,4.2725,4.2763,4.2818,4.2807,4.2739,4.2953,4.2857,4.2955,4.2955,4.3002,4.2999,4.3293,4.303,4.303,4.3029,4.3029,0,4.2322,4.2434,4.2418,4.2493,4.2615,4.2591,4.2713,4.2727,4.2761,4.2837,4.2792,4.2865,4.2846,4.2919,4.2911,4.3029,4.3048,4.305,4.3046,4.3053,4.3053,4.3079,4.3065,4.3037,4.3035,4.3034,4.3033,0,4.2549,4.2543,4.2672,4.2701,4.2711,4.28,4.2825,4.2895,4.2897,4.2995,4.3016,4.3021,4.3103,4.3097,4.3192,4.3186,4.3332,4.3313,4.3317,4.3312,4.341,4.34,4.373,4.3772,4.3483,4.3486,4.3488,0,4.2697,4.278,4.2818,4.2865,4.2889,4.2966,4.3011,4.299,4.304,4.3094,4.3158,4.3236,4.3297,4.3432,4.3444,4.3515,4.3497,4.3608,4.3508,4.3512,4.3497,4.3492,4.3499,4.3628,4.3631,4.3634,4.3636,0,4.2959,4.2951,4.3017,4.3083,4.3137,4.3188,4.3234,4.3276,4.326,4.3317,4.34,4.3447,4.3541,4.3619,4.3687,4.3709,4.367,4.3667,4.3693,4.3701,4.3698,4.3699,4.3369,4.366,4.3657,4.3655,4.3654,4.3653,4.315,4.322,4.3257,4.3331,4.3363,4.3407,4.3473,4.3483,4.3551,4.3625,4.3609,4.3702,4.3742,4.3828,4.3856,4.3929,4.3889,4.3928,4.3937,4.3946,4.3957,4.3688,4.3941,4.3941,4.394,4.3939,4.3939,0,4.3408,4.3428,4.3497,4.3561,4.362,4.3576,4.3624,4.3677,4.3758,4.3798,4.3858,4.3953,4.4027,4.4044,4.4116,4.4171,4.4154,4.419,4.4185,4.4191,4.3989,4.3958,4.4202,4.4202,4.4202,4.4201,4.4201,4.4201,4.3549,4.3665,4.3662,4.3793,4.3812,4.3901,4.3932,4.3972,4.4003,4.411,4.4171,4.4181,4.4211,4.4284,4.4351,4.4354,4.4382,4.4424,4.442,4.4231,4.4205,4.418,4.4151,4.4431,4.4431,4.4615,4.4617,4.4618]},{"header":{"parameterUnit":"m.s-1","parameterCategory":1,"la1":30.2991,"la2":30.254,"lo1":-89.0895,"lo2":-89.0444,"dy":0.0017,"dx":0.0017,"nx":28,"ny":28,"refTime":"2024-07-30T21:00:00:Z","depth":0,"parameterNumber":3,"parameterNumberName":"V-component_of_WINDS"},"data":[0,0,0,0,0,0,0,0,0,0,0,0,0,0,0,0,0,0,0,0,0,0,0,0,0,0,0,0,0,0,0,0,0,0,0,0,0,0,0,0,0,0,0,0,0,0,0,0,0,0,0,0,0,0,0,0,0,0,1.4745,1.4746,0,1.4813,1.4814,1.4815,1.4806,1.4805,1.4803,1.4802,1.4871,1.4874,1.4877,0,0,0,0,0,0,0,0,0,0,0,0,0,1.4606,1.4608,1.4745,1.4746,1.4747,1.4813,1.4814,1.4815,1.4806,1.4804,1.4803,1.4802,1.487,1.4874,1.4877,0,0,0,0,0,0,0,0,0,0,0,0,0,1.4669,1.4609,1.4745,1.475,1.4752,1.4813,1.4814,1.4815,1.4806,1.4804,1.4803,1.4801,1.4869,1.4873,1.4878,1.4938,0,0,1.4891,1.4893,0,0,0,0,0,0,0,0,1.4666,1.4674,1.4749,1.475,1.4752,1.4799,1.479,1.4856,1.4807,1.4785,1.4802,1.48,1.4849,1.4854,1.4871,1.4941,1.4944,1.4891,1.4894,1.4896,1.4897,0,0,0,0,0,0,0,1.4661,1.4671,1.4772,1.475,1.4752,1.4749,1.4756,1.4802,1.4826,1.4787,1.4787,1.4795,1.4849,1.4867,1.4872,1.4945,1.4891,1.4895,1.4897,1.4899,1.5066,1.5067,0,0,0,0,0,0,1.4656,1.4668,1.477,1.4774,1.4704,1.4753,1.4761,1.4786,1.4825,1.4829,1.4796,1.4794,1.486,1.4867,1.4875,1.4947,1.4896,1.49,1.4902,1.5064,1.5066,1.5068,0,0,0,0,0,0,1.4653,1.4665,1.4767,1.4721,1.4734,1.4757,1.4785,1.4788,1.4806,1.4832,1.4836,1.481,1.4859,1.4869,1.4922,1.4949,1.4902,1.4905,1.5062,1.5065,1.5067,1.5092,0,0,0,0,0,0,1.4649,1.4664,1.4688,1.4721,1.4736,1.4814,1.4787,1.479,1.4813,1.4811,1.4846,1.485,1.4859,1.4915,1.4926,1.4954,1.4909,1.5059,1.5063,1.5066,1.5089,1.5095,1.5101,0,0,0,0,0,1.4644,1.4692,1.4689,1.4701,1.4766,1.4815,1.4824,1.4833,1.4815,1.4839,1.4855,1.4849,1.4944,1.4921,1.4933,1.4963,1.5058,1.5062,1.5066,1.5086,1.5094,1.51,0,0,0,0,0,0,1.4661,1.4697,1.4694,1.4754,1.4782,1.4814,1.4844,1.4841,1.4874,1.487,1.488,1.4888,1.4941,1.4957,1.493,1.5022,1.4998,1.5005,1.501,1.5017,1.5023,1.5018,1.4912,0,0,0,0,0,1.4672,1.4709,1.4738,1.4789,1.4803,1.4821,1.4843,1.4847,1.4876,1.4887,1.4908,1.4936,1.4972,1.4995,1.503,1.5091,1.5097,1.5117,1.5123,1.5127,1.5133,1.5165,1.5174,1.5082,1.5082,1.5082,0,0,1.4695,1.4719,1.4742,1.4793,1.4815,1.4852,1.4831,1.4872,1.49,1.4894,1.4945,1.4961,1.4992,1.5049,1.5075,1.5064,1.516,1.5133,1.5136,1.514,1.517,1.5179,1.5186,1.5084,1.5084,1.5083,0,0,1.4756,1.4778,1.4822,1.4844,1.4877,1.4889,1.4899,1.4932,1.4942,1.4993,1.4989,1.5021,1.5084,1.5106,1.5125,1.5192,1.5187,1.5203,1.5235,1.5265,1.5273,1.5279,1.5302,1.531,1.5209,1.5209,1.5209,0,1.478,1.4837,1.4845,1.4887,1.4909,1.4904,1.4948,1.4969,1.5012,1.5027,1.5014,1.5091,1.5112,1.5173,1.5189,1.5205,1.5217,1.52,1.5271,1.5278,1.5284,1.5306,1.5315,1.5211,1.5211,1.521,1.521,0,1.4865,1.4904,1.4936,1.4977,1.5002,1.5045,1.5059,1.5083,1.5085,1.5097,1.5149,1.5173,1.5212,1.5227,1.5229,1.5288,1.528,1.5269,1.5246,1.5294,1.5315,1.5324,1.5213,1.5213,1.5212,1.5212,0,0,1.494,1.4983,1.4995,1.5013,1.5048,1.5079,1.512,1.5158,1.5179,1.5208,1.5242,1.5294,1.5283,1.5305,1.531,1.5337,1.5387,1.5322,1.5323,1.5333,1.5452,1.546,1.547,1.5384,1.5385,1.5387,1.5449,0,1.5003,1.5078,1.5085,1.5151,1.5187,1.5182,1.5218,1.5243,1.5256,1.5287,1.53,1.5337,1.5321,1.5333,1.536,1.5375,1.5411,1.5371,1.5415,1.5416,1.5407,1.5481,1.549,1.5548,1.5457,1.5459,1.546,0,1.5088,1.5119,1.5189,1.5218,1.5233,1.5266,1.53,1.5331,1.5358,1.5365,1.5389,1.5389,1.5431,1.5405,1.5462,1.5435,1.5453,1.5463,1.5465,1.547,1.5441,1.5487,1.5566,1.5575,1.5473,1.5472,1.5471,0,1.5135,1.5194,1.5243,1.5259,1.5294,1.5316,1.5332,1.5358,1.538,1.541,1.5424,1.5458,1.5477,1.5503,1.5512,1.5493,1.5568,1.5544,1.5574,1.5574,1.559,1.5589,1.5674,1.5603,1.5602,1.5602,1.5602,0,1.5205,1.5248,1.5264,1.5294,1.5341,1.5349,1.5395,1.5409,1.5432,1.5464,1.5462,1.5492,1.5502,1.5533,1.554,1.5586,1.5594,1.56,1.5602,1.56,1.56,1.5613,1.5609,1.5605,1.5604,1.5604,1.5603,0,1.5266,1.5279,1.5331,1.536,1.5368,1.5401,1.5425,1.5454,1.5465,1.5505,1.5515,1.5533,1.5569,1.558,1.5625,1.5629,1.5682,1.568,1.5673,1.5673,1.5702,1.5699,1.5798,1.5811,1.5731,1.5732,1.5733,0,1.531,1.5342,1.5374,1.5395,1.5412,1.5446,1.5468,1.5476,1.5499,1.5532,1.5556,1.5592,1.5622,1.568,1.5696,1.5729,1.5728,1.576,1.5733,1.573,1.5728,1.5725,1.5728,1.5765,1.5766,1.5767,1.5767,0,1.5386,1.5391,1.5423,1.5457,1.5483,1.551,1.5536,1.5553,1.5565,1.559,1.5628,1.565,1.5695,1.573,1.5764,1.5779,1.5775,1.5776,1.5784,1.5783,1.5778,1.578,1.5686,1.5774,1.5773,1.5772,1.5772,1.5772,1.5439,1.5467,1.5494,1.5529,1.5549,1.5573,1.5601,1.5615,1.5647,1.5684,1.5686,1.5726,1.5751,1.5796,1.5813,1.5843,1.5834,1.5847,1.585,1.5853,1.5855,1.5773,1.5849,1.5849,1.5849,1.5849,1.5849,0,1.5515,1.5531,1.5564,1.56,1.5627,1.5621,1.5649,1.5672,1.5707,1.5731,1.576,1.5802,1.5836,1.5854,1.5888,1.5909,1.5907,1.5917,1.5915,1.5919,1.5862,1.585,1.5917,1.5917,1.5917,1.5917,1.5917,1.5917,1.5558,1.5604,1.5612,1.5668,1.5684,1.5723,1.5739,1.5761,1.578,1.5827,1.5855,1.5867,1.5888,1.5923,1.5953,1.5958,1.597,1.598,1.5983,1.593,1.5923,1.5916,1.5906,1.5983,1.5983,1.6038,1.6038,1.6039]}]]